Погода в Прошенино

Россия / Ярославская область     57°22′35″N   39°59′32″E
темп.,
°C
ветер,
м/с
пор.,
м/с
влажн.,
%
обл.,
%
осадки,
мм/ч
давл.,
гПа
погр.,
м
5 марта, пт
пт500:00−11зсз23930 0.0 100122
03:00−12зсз23942 0.0 100322
06:00−12з239524 0.0 100328
09:00−9з369556 0.0 1004231
12:00−5зсз469198 0.1 1005572
15:00−5сз578399 0.5 1007853
18:00−10сз4108547 0.0 1009234
21:00−14зсз238723 0.0 101221
6 марта, сб
сб600:00−14зюз34890 0.0 101359
03:00−13зюз389431 0.0 1015181
06:00−15зсз349792 0.0 101481
09:00−14сз359357 0.0 1015173
12:00−10зсз34875 0.0 1015416
15:00−8зсз358249 0.0 1014782
18:00−10зюз3391100 0.0 101343
21:00−13юз349174 0.0 101275
7 марта, вс
вс700:00−13ююз49919 0.0 1009178
03:00−11ююз6138840 0.0 1006308
06:00−9ююз71492100 0.2 1001614
09:00−7ююз81492100 0.6 997883
12:00−5ююз81393100 0.9 9921010
15:00−4ю71293100 2.1 989911
18:00−6зсз121793100 1.6 989980
21:00−8з71480100 2.8 991796
8 марта, пн
пн800:00−12з5108588 0.0 991196
03:00−15зюз338454 0.0 99124
06:00−16зсз239019 0.0 99128
09:00−13зсз479430 0.0 992256
12:00−8зсз479396 0.2 994571
15:00−6ссз699398 1.0 997752
18:00−9ссз61092100 0.5 1000684
21:00−12ссз5109298 0.6 1004424
9 марта, вт
вт900:00−14сз4109481 0.1 1006351
03:00−15сз499586 0.1 1008303
06:00−15ссз489599 0.2 1011365
09:00−16сз4793100 0.3 1013399
12:00−16сз469193 0.0 1014389
15:00−15сз469094 0.0 1015493
18:00−19сз369595 0.0 1015129
21:00−23сз239987 0.0 101740